Regional Weather Roundup
Issued by NWS Portland, ME

Current Version | Previous Version | Text Only | Print | Product List | Glossary Off
Versions: 1 2 3 4 5 6 7 8 9 10 11 12 13 14 15 16 17 18 19 20 21 22 23 24 25 26 27 28 29 30 31 32 33 34 35 36 37 38 39 40 41 42 43 44 45 46 47 48 49 50
000 ASUS41 KGYX 260905 RWRGYX WEATHER ROUNDUP FOR MAINE AND NEW HAMPSHIRE NATIONAL WEATHER SERVICE GRAY ME 500 AM EDT FRI MAY 26 2017 MEZ002-005-006-010-012-015-018-020-021-024-026-027-029-261000- MAINE CITY SKY/WX TMP DP RH WIND PRES REMARKS PORTLAND HVY RAIN 49 47 93 NE10 29.62S FOG BAR HARBOR LGT RAIN 48 46 93 NE16G24 29.63F FOG WISCASSET HVY RAIN 49 48 97 NE7 29.62S FOG ROCKLAND RAIN 47 46 97 NE18G25 29.61R FOG FRYEBURG HVY RAIN 50 49 96 N8 29.63F FOG LEWISTONAUBURN HVY RAIN 49 49 100 N8 29.63R AUGUSTA RAIN 49 46 90 NE7 29.65R FOG WATERVILLE LGT RAIN 47 46 97 NE13 29.59F FOG BANGOR LGT RAIN 47 46 97 NE14 29.66F FOG GREENVILLE N/A 47 46 97 E10 29.67F MILLINOCKET LGT RAIN 48 47 96 NE8 29.75F FOG HOULTON CLOUDY 48 44 86 NE7 29.79F PRESQUE ISLE CLOUDY 48 42 80 NE7 29.82F FRENCHVILLE CLOUDY 45 36 70 E8 29.83F CARIBOU CLOUDY 48 41 76 NE6 29.82F $$ NHZ002-005-008-009-011-012-014-261000- NEW HAMPSHIRE CITY SKY/WX TMP DP RH WIND PRES REMARKS PORTSMOUTH RAIN 47 45 93 N18G24 29.53F FOG ROCHESTER HVY RAIN 48 45 89 NE12G21 29.57F FOG NASHUA LGT RAIN 49 47 93 VRB5 29.51F MANCHESTER LGT RAIN 49 45 86 N17 29.50F CONCORD RAIN 49 47 93 N7 29.56F FOG LACONIA RAIN 50 48 93 E12 29.58F FOG PLYMOUTH RAIN 50 48 93 CALM 29.59S BERLIN RAIN 50 46 86 CALM 29.63F FOG WHITEFIELD RAIN 50 45 83 E9G21 29.61R JAFFREY LGT RAIN 48 48 100 MISG 29.50F LEBANON LGT RAIN 52 50 93 NE5 29.56S MT WASHINGTON FRZ RAIN 32 32 100 SE24 N/A VSB 3/16WCI 19 $$ VTZ005-007-008-261000- VERMONT CITY SKY/WX TMP DP RH WIND PRES REMARKS ST JOHNSBURY N/A 51 49 92 MISG 29.57S MONTPELIER LGT RAIN 50 50 100 CALM 29.59F FOG BURLINGTON CLOUDY 55 53 93 CALM 29.56F $$ MAZ007-012-024-CTZ003-RIZ002-NYZ038-NYZ072-261000- SOUTHERN NEW ENGLAND AND NY CITY SKY/WX TMP DP RH WIND PRES REMARKS BOSTON CLOUDY 50 48 93 N13 29.49F WORCESTER HVY RAIN 46 44 93 NE8G22 29.48R FOG NANTUCKET CLOUDY N/A N/A N/A S12 29.50S PROVIDENCE CLOUDY 51 51 100 NE14 29.48S HARTFORD LGT RAIN 50 50 100 N7 29.51R ALBANY LGT RAIN 53 50 89 N8 29.51R NEW YORK CITY LGT RAIN 57 55 93 NW7 29.50R $$ ANZ081-ANZ082-ANZ150-NHZ014-MEZ023>029-261000- COASTAL MARINE OBSERVATIONS STATION/POSITION TIME TEMP WIND PRES WAVE AIR SEA DIR/SP/G HT/PER (UTC) (F) (DEG/KT/KT) (MB) (FT/S) MOUNT DESERT ROC 0900 44 1001.5F MATINICUS ROCK 0800 45 70/ 35/ 40 1000.1F ISLE OF SHOALS 0800 47 20/ 28/ 33 999.2F JEFFREYS LEDGE 0836 48 N/A 8/ 8 CASHES LEDGE BUO 0750 47 47 999.5 9/ 8 GEORGES BANK BUO 0750 51 45 1002.9 8/ 9 $$ .............KEY.............. WCI - WIND CHILL TC - TEMPERATURE IN CELSIUS VSB - VISIBILITY IN MILES HX - HEAT INDEX FAIR- INDICATES FEW OR NO CLOUDS BELOW 12,000 FT, WITH NO SIGNIFICANT WEATHER AND/OR OBSTRUCTIONS TO VISIBILITY.

USA.gov is the U.S. government's official web portal to all federal, state and local government web resources and services.